Weather History for KPAH - October, 2012

Change the Weather History Date:

Sunday, October 28, 2012

  Actual Average Record
Temperature  
Mean Temperature 46 °F 55 °F  
Max Temperature 55 °F 67 °F 86 °F (1940)
Min Temperature 37 °F 44 °F 24 °F (1976)
Degree Days  
Heating Degree Days 19 10  
Month to date heating degree days 225 195  
Since 1 July heating degree days 265 234  
Cooling Degree Days 0 1  
Month to date cooling degree days 25 39  
Year to date cooling degree days 1977 1539  
Moisture  
Dew Point 33 °F    
Average Humidity 64    
Maximum Humidity 85    
Minimum Humidity 43    
Precipitation  
Precipitation 0.00 in 0.12 in 0.97 in (1984)
Month to date precipitation 2.92 3.60  
Year to date precipitation 24.10 39.83  
Snow  
Snow 0.00 in 0.00 in 0.00 in (2002)
Month to date snowfall 0.0 0.1  
Since 1 July snowfall 0.0 0.1  
Since 1 September snowfall 0.0 0.1  
Snow Depth 0.00 in    
Sea Level Pressure  
Sea Level Pressure 30.16 in    
Wind  
Wind Speed 11 mph (North)    
Max Wind Speed 18 mph    
Max Gust Speed 25 mph    
Visibility 10 miles    
Events      
T = Trace of Precipitation, MM = Missing Value Source: NWS Daily Summary

Daily Weather History Graph

Daily Weather History Graph

Search for Another Location

Airport or City:

Trip Planner

Search our weather history database for the weather conditions in past years. The results will help you decide how hot, cold, wet, or windy it might be!

Date:

Astronomy

Oct. 28, 2012 Rise Set
Actual Time 7:15 AM CDT 6:01 PM CDT
Civil Twilight 6:49 AM CDT 6:28 PM CDT
Nautical Twilight 6:18 AM CDT 6:58 PM CDT
Astronomical Twilight 5:48 AM CDT 7:28 PM CDT
Moon 5:18 PM CDT (10/28) 6:09 AM CDT (10/28)
Length of Visible Light 11h 39m
Length of Day
10h 45m
Waxing Gibbous, 99% of the Moon is Illuminated
Oct 28
Waxing Gibbous
Oct 29
Full
Nov 6
Last Quarter
Nov 13
New
Nov 20
First Quarter

Hourly Weather History & Observations

Time (CDT) Temp. Windchill Dew Point Humidity Pressure Visibility Wind Dir Wind Speed Gust Speed Precip Events Conditions
12:53 AM 39.9 °F 33.9 °F 33.1 °F 77% 30.15 in 10.0 mi North 9.2 mph - N/A   Clear
1:53 AM 39.9 °F 32.9 °F 32.0 °F 73% 30.16 in 10.0 mi North 11.5 mph - N/A   Clear
2:53 AM 39.9 °F 32.9 °F 33.1 °F 77% 30.14 in 10.0 mi North 11.5 mph - N/A   Clear
3:53 AM 39.0 °F 31.8 °F 33.1 °F 79% 30.13 in 10.0 mi North 11.5 mph - N/A   Clear
4:53 AM 37.9 °F 31.5 °F 33.1 °F 83% 30.14 in 10.0 mi North 9.2 mph - N/A   Clear
5:53 AM 37.9 °F 31.5 °F 33.1 °F 83% 30.15 in 10.0 mi North 9.2 mph - N/A   Clear
6:53 AM 37.0 °F 32.4 °F 33.1 °F 86% 30.16 in 10.0 mi North 5.8 mph - N/A   Clear
7:53 AM 37.9 °F 32.1 °F 34.0 °F 86% 30.16 in 10.0 mi North 8.1 mph - N/A   Clear
8:53 AM 41.0 °F 34.7 °F 34.0 °F 76% 30.17 in 10.0 mi North 10.4 mph - N/A   Clear
9:53 AM 44.1 °F 38.1 °F 35.1 °F 71% 30.17 in 10.0 mi North 11.5 mph - N/A   Clear
10:53 AM 48.0 °F - 37.0 °F 66% 30.17 in 10.0 mi North 9.2 mph - N/A   Clear
11:53 AM 51.8 °F - 37.4 °F 58% 30.17 in 10.0 mi NNE 10.4 mph - N/A   Clear
12:53 PM 53.1 °F - 35.1 °F 50% 30.16 in 10.0 mi North 15.0 mph 19.6 mph N/A   Clear
1:53 PM 55.0 °F - 33.1 °F 43% 30.14 in 10.0 mi North 13.8 mph - N/A   Clear
2:53 PM 55.0 °F - 33.1 °F 43% 30.14 in 10.0 mi NNE 18.4 mph 23.0 mph N/A   Clear
3:53 PM 54.0 °F - 33.1 °F 45% 30.13 in 10.0 mi North 15.0 mph - N/A   Scattered Clouds
4:53 PM 52.0 °F - 32.0 °F 47% 30.14 in 10.0 mi NNW 12.7 mph - N/A   Scattered Clouds
5:53 PM 50.0 °F - 32.0 °F 50% 30.15 in 10.0 mi North 13.8 mph - N/A   Mostly Cloudy
6:53 PM 46.9 °F - 32.0 °F 56% 30.17 in 10.0 mi North 11.5 mph - N/A   Scattered Clouds
7:53 PM 44.6 °F 40.7 °F 32.0 °F 61% 30.17 in 10.0 mi North 6.9 mph - N/A   Partly Cloudy
8:53 PM 44.1 °F 39.5 °F 32.0 °F 63% 30.19 in 10.0 mi North 8.1 mph - N/A   Clear
9:53 PM 42.1 °F 37.1 °F 32.0 °F 67% 30.19 in 10.0 mi North 8.1 mph - N/A   Clear
10:53 PM 39.9 °F 35.1 °F 32.0 °F 73% 30.19 in 10.0 mi NNW 6.9 mph - N/A   Clear
11:53 PM 41.0 °F 35.2 °F 33.1 °F 73% 30.19 in 10.0 mi North 9.2 mph - N/A   Clear